Weather History for Norwood, MA

Change the Weather History Date:

Tuesday, December 3, 2013

  Actual Average Record
Temperature  
Mean Temperature 38 °F -  
Max Temperature 50 °F 43 °F 61 °F (1998)
Min Temperature 26 °F 25 °F 8 °F (2000)
Degree Days  
Heating Degree Days 27    
Moisture  
Dew Point 33 °F    
Average Humidity 88    
Maximum Humidity 100    
Minimum Humidity 48    
Precipitation  
Precipitation 0.00 in - - ()
Sea Level Pressure  
Sea Level Pressure 29.91 in    
Wind  
Wind Speed 4 mph (NW)    
Max Wind Speed 10 mph    
Max Gust Speed -    
Visibility 6 miles    
Events      
Averages and records for this station are not official NWS values.
T = Trace of Precipitation, MM = Missing Value Source: NWS Daily Summary

Daily Weather History Graph

Daily Weather History Graph

Search for Another Location

Airport:

Trip Planner

Search our weather history database for the weather conditions in past years. The results will help you decide how hot, cold, wet, or windy it might be!

Date:

Astronomy

Dec. 03, 2013 Rise Set
Actual Time 6:56 AM EST 4:13 PM EST
Civil Twilight 6:24 AM EST 4:44 PM EST
Nautical Twilight 5:49 AM EST 5:19 PM EST
Astronomical Twilight 5:15 AM EST 5:53 PM EST
Moon 7:21 AM EST (12/3) 5:13 PM EST (12/3)
Length of Visible Light 10h 19m
Length of Day
9h 17m
New Moon, 1% of the Moon is Illuminated
Dec 3
New Moon
Dec 9
First Quarter
Dec 17
Full
Dec 25
Last Quarter
Jan 1
New

Hourly Weather History & Observations

Time (EST) Temp. Windchill Dew Point Humidity Pressure Visibility Wind Dir Wind Speed Gust Speed Precip Events Conditions
12:00 AM 37.0 °F 33.3 °F 36.0 °F 96% 29.92 in 2.0 mi NW 4.6 mph - N/A   Overcast
12:07 AM 37.0 °F 34.5 °F 36.0 °F 96% 29.92 in 1.5 mi North 3.5 mph - N/A   Overcast
12:17 AM 37.0 °F 33.3 °F 36.0 °F 96% 29.91 in 1.2 mi NW 4.6 mph - N/A   Overcast
12:42 AM 36.0 °F 33.3 °F 35.1 °F 97% 29.91 in 2.5 mi North 3.5 mph - N/A   Overcast
12:53 AM 36.0 °F 33.3 °F 36.0 °F 100% 29.91 in 1.8 mi NW 3.5 mph - N/A   Overcast
1:23 AM 36.0 °F 33.3 °F 35.1 °F 97% 29.91 in 3.0 mi NNW 3.5 mph - N/A   Overcast
1:38 AM 36.0 °F 31.1 °F 35.1 °F 97% 29.91 in 4.0 mi NW 5.8 mph - N/A   Overcast
1:53 AM 36.0 °F 33.3 °F 35.1 °F 97% 29.92 in 2.5 mi NNW 3.5 mph - N/A   Overcast
2:10 AM 36.0 °F - 36.0 °F 100% 29.92 in 3.0 mi Calm Calm - N/A   Overcast
2:53 AM 36.0 °F 30.3 °F 35.1 °F 97% 29.90 in 5.0 mi North 6.9 mph - N/A   Overcast
3:53 AM 37.0 °F 34.5 °F 35.1 °F 93% 29.91 in 6.0 mi Variable 3.5 mph - N/A   Overcast
4:53 AM 36.0 °F 31.1 °F 35.1 °F 97% 29.91 in 6.0 mi NW 5.8 mph - N/A   Overcast
5:53 AM 36.0 °F 30.3 °F 35.1 °F 97% 29.91 in 7.0 mi NNW 6.9 mph - N/A   Overcast
6:53 AM 36.0 °F 29.6 °F 34.0 °F 93% 29.91 in 4.0 mi NW 8.1 mph - N/A   Overcast
7:53 AM 36.0 °F 33.3 °F 35.1 °F 97% 29.91 in 4.0 mi NNW 3.5 mph - N/A   Overcast
8:53 AM 37.0 °F 32.4 °F 35.1 °F 93% 29.91 in 5.0 mi North 5.8 mph - N/A   Overcast
9:05 AM 37.0 °F 33.3 °F 35.1 °F 93% 29.91 in 5.0 mi NW 4.6 mph - N/A   Overcast
9:53 AM 37.9 °F 32.7 °F 35.1 °F 89% 29.91 in 5.0 mi NNW 6.9 mph - N/A   Overcast
10:53 AM 39.0 °F 34.0 °F 35.1 °F 86% 29.90 in 6.0 mi NW 6.9 mph - N/A   Overcast
11:19 AM 41.0 °F 38.0 °F 35.1 °F 79% 29.88 in 7.0 mi Variable 4.6 mph - N/A   Scattered Clouds
11:53 AM 43.0 °F 38.2 °F 35.1 °F 74% 29.86 in 9.0 mi NW 8.1 mph - N/A   Clear
12:53 PM 46.9 °F - 34.0 °F 61% 29.85 in 10.0 mi NW 6.9 mph - N/A   Clear
1:53 PM 50.0 °F - 33.1 °F 52% 29.85 in 10.0 mi NNW 10.4 mph - N/A   Clear
2:53 PM 48.9 °F - 30.0 °F 48% 29.85 in 10.0 mi Variable 6.9 mph - N/A   Clear
3:53 PM 46.9 °F - 30.0 °F 52% 29.86 in 10.0 mi NNW 3.5 mph - N/A   Clear
4:53 PM 37.0 °F 34.5 °F 30.0 °F 76% 29.88 in 10.0 mi WNW 3.5 mph - N/A   Clear
5:53 PM 32.0 °F - 28.9 °F 88% 29.90 in 10.0 mi Calm Calm - N/A   Clear
6:53 PM 30.9 °F - 28.0 °F 89% 29.91 in 9.0 mi Calm Calm - N/A   Clear
7:53 PM 30.0 °F - 28.0 °F 92% 29.92 in 9.0 mi Calm Calm - N/A   Clear
8:53 PM 28.0 °F - 26.1 °F 92% 29.93 in 9.0 mi Calm Calm - N/A   Clear
9:53 PM 35.1 °F 32.2 °F 30.9 °F 85% 29.94 in 9.0 mi West 3.5 mph - N/A   Clear
10:53 PM 27.0 °F - 26.1 °F 96% 29.94 in 4.0 mi Calm Calm - N/A   Clear
11:53 PM 26.1 °F - 25.0 °F 96% 29.95 in 4.0 mi Calm Calm - N/A   Clear
11:58 PM 27.0 °F - 26.1 °F 96% 29.95 in 1.2 mi Calm Calm - N/A   Partly Cloudy